TimeCDT,TemperatureF,Dew PointF,Humidity,Sea Level PressureIn,VisibilityMPH,Wind Direction,Wind SpeedMPH,Gust SpeedMPH,PrecipitationIn,Events,Conditions,WindDirDegrees,DateUTC
12:56 AM,73.9,70.0,87,29.90,8.0,Calm,Calm,-,0.03,Rain,Light Rain,0,2013-07-25 05:56:00
1:56 AM,73.0,70.0,90,29.89,10.0,West,3.5,-,0.00,,Scattered Clouds,280,2013-07-25 06:56:00
2:56 AM,72.0,70.0,93,29.89,10.0,West,3.5,-,0.01,,Clear,260,2013-07-25 07:56:00
3:56 AM,72.0,69.1,91,29.91,10.0,SW,5.8,-,N/A,,Scattered Clouds,220,2013-07-25 08:56:00
4:56 AM,72.0,70.0,93,29.91,10.0,Calm,Calm,-,N/A,,Overcast,0,2013-07-25 09:56:00
5:56 AM,72.0,70.0,93,29.94,7.0,West,3.5,-,0.01,,Mostly Cloudy,270,2013-07-25 10:56:00
6:56 AM,73.0,71.1,93,29.95,5.0,WNW,3.5,-,N/A,,Mostly Cloudy,300,2013-07-25 11:56:00
7:56 AM,73.9,71.1,91,29.96,6.0,NW,4.6,-,N/A,,Mostly Cloudy,310,2013-07-25 12:56:00
8:39 AM,77.0,71.6,83,29.98,7.0,North,6.9,-,N/A,,Scattered Clouds,350,2013-07-25 13:39:00
8:56 AM,79.0,72.0,79,29.97,7.0,North,6.9,-,N/A,,Scattered Clouds,10,2013-07-25 13:56:00
9:56 AM,82.9,72.0,69,29.99,10.0,North,8.1,-,N/A,,Scattered Clouds,360,2013-07-25 14:56:00
10:40 AM,84.2,71.6,66,30.01,10.0,NNW,9.2,-,N/A,,Mostly Cloudy,340,2013-07-25 15:40:00
10:56 AM,82.0,72.0,71,30.00,10.0,NW,6.9,-,N/A,,Mostly Cloudy,310,2013-07-25 15:56:00
11:56 AM,86.0,73.0,65,30.01,10.0,NW,6.9,-,N/A,,Mostly Cloudy,320,2013-07-25 16:56:00
12:17 PM,84.2,73.4,70,30.02,10.0,NW,8.1,-,N/A,,Mostly Cloudy,310,2013-07-25 17:17:00
12:56 PM,88.0,72.0,59,30.01,10.0,NNW,8.1,-,N/A,,Mostly Cloudy,330,2013-07-25 17:56:00
1:56 PM,89.1,72.0,57,30.00,10.0,West,6.9,-,N/A,,Mostly Cloudy,280,2013-07-25 18:56:00
2:56 PM,88.0,72.0,59,29.99,10.0,WNW,9.2,-,N/A,,Mostly Cloudy,300,2013-07-25 19:56:00
3:56 PM,89.1,72.0,57,29.98,10.0,WNW,6.9,-,N/A,,Mostly Cloudy,290,2013-07-25 20:56:00
4:56 PM,89.1,71.1,55,29.98,10.0,WNW,8.1,-,N/A,,Scattered Clouds,300,2013-07-25 21:56:00
5:56 PM,89.1,72.0,57,29.97,10.0,WNW,6.9,-,N/A,,Scattered Clouds,300,2013-07-25 22:56:00
6:56 PM,86.0,71.1,61,29.99,10.0,WNW,5.8,-,N/A,,Scattered Clouds,300,2013-07-25 23:56:00
7:56 PM,82.9,72.0,69,29.99,10.0,WNW,3.5,-,N/A,,Scattered Clouds,300,2013-07-26 00:56:00
8:56 PM,79.0,72.0,79,29.99,10.0,Calm,Calm,-,N/A,,Scattered Clouds,0,2013-07-26 01:56:00
9:56 PM,78.1,72.0,81,30.01,10.0,NW,3.5,-,N/A,,Partly Cloudy,320,2013-07-26 02:56:00
10:56 PM,77.0,71.1,82,30.01,10.0,WNW,3.5,-,N/A,,Scattered Clouds,300,2013-07-26 03:56:00
11:56 PM,75.9,71.1,85,30.03,10.0,NW,3.5,-,N/A,,Clear,310,2013-07-26 04:56:00